Location: Arlington
(41.0803°N, 81.4934°W)
Time: 05:45:11
(UTC+00:00)

Daily predictions for brighter satellites

Satellite Brightness Start Highest point End
(mag) Time Altitude Azimuth Time Altitude Azimuth Time Altitude Azimuth
MOS 1-B 4.4 01:21:41 10° SSE 01:27:27 90° ENE 01:33:16 10° NNW
CSL-04 Rocket 3.7 01:23:03 10° SSE 01:28:20 89° ENE 01:33:43 10° NNW
IRIDIUM 104 4.5 01:24:43 10° N 01:29:53 58° E 01:35:01 10° SSE
SL-4 R/B 4.4 01:27:14 10° WNW 01:30:10 21° NNW 01:33:14 10° NE
Cosmos 1766 3.2 01:28:53 10° N 01:32:40 90° WNW 01:36:24 10° S
BREEZE-M DEB (TANK) 2.5 01:31:28 10° SW 01:34:14 67° SE 01:41:32 10° ENE
IRIDIUM 114 4.3 01:33:50 10° N 01:39:04 72° E 01:44:14 10° S
ARGOS Delta rocket 4.5 01:36:48 10° SE 01:40:51 35° ENE 01:44:51 10° N
Cosmos 1980 Rocket 2.8 01:35:50 10° NNW 01:41:26 59° WSW 01:46:57 10° S
Cosmos 2322 Rocket 3.7 01:38:45 10° N 01:43:15 23° NE 01:47:44 10° ESE
Cosmos 1441 Rocket 4.0 01:40:15 10° N 01:43:33 32° ENE 01:46:51 10° SE
Cosmos 1400 Rocket 4.0 01:40:39 10° SE 01:43:42 22° E 01:46:45 10° NE
COSMOS 2406 3.8 01:39:10 10° SW 01:44:51 64° WNW 01:50:34 10° NNE
Cosmos 1515 Rocket 3.6 01:40:48 10° S 01:45:06 88° W 01:49:28 10° N
Cosmos 1633 Rocket 4.2 01:43:12 10° NNW 01:47:22 44° W 01:51:29 10° SSW
IRIDIUM 103 4.4 01:42:58 10° N 01:48:13 87° E 01:53:26 10° S
Okean-O 2.7 01:43:54 10° SSE 01:48:15 67° ENE 01:52:38 10° N
Cosmos 1908 3.7 01:45:05 10° N 01:48:29 39° ENE 01:51:48 10° SSE
ATLAS CENTAUR R/B 2.1 01:45:44 10° SSE 01:48:32 23° ESE 01:51:23 10° ENE
CARTOSAT-1 4.5 01:45:35 10° S 01:49:41 48° W 01:53:50 10° NNW
Cosmos 468 Rocket 4.1 01:46:04 10° NNW 01:51:16 69° ENE 01:56:24 10° SSE
Ariane Rocket 4.3 01:49:25 10° ESE 01:53:29 25° ENE 01:57:34 10° NNE
Cosmos 2278 4.0 01:50:59 10° NNW 01:56:38 57° ENE 02:01:45 12° SE
ATLAS 2AS CENTAUR R/B 3.9 01:54:08 10° NNW 02:00:03 30° NE 02:05:47 10° E
Cosmos 1470 Rocket 4.5 01:58:39 10° NNW 02:02:49 48° W 02:06:58 10° SSW
Timation 1 Rocket 4.4 01:57:06 10° S 02:02:51 54° ESE 02:08:39 10° NE
Cosmos 2228 Rocket 4.3 02:02:01 13° SE 02:05:05 26° E 02:08:51 10° NNE
Cosmos 1470 2.7 02:01:49 10° N 02:05:30 78° W 02:09:11 10° S
Cosmos 1869 Rocket 3.9 02:01:37 10° N 02:05:57 50° E 02:09:36 14° SSE
Meteor 1-13 Rocket 4.3 02:00:19 10° S 02:06:04 72° E 02:11:46 10° NNE
Cosmos 540 Rocket 3.6 02:00:55 10° NNW 02:06:04 80° WSW 02:11:08 10° SSE
Cosmos 1553 Rocket 4.1 02:00:11 10° N 02:06:24 88° W 02:12:42 10° S
Cosmos 1850 Rocket 4.5 02:01:57 10° S 02:06:47 39° ESE 02:11:36 10° NE
Okean O Rocket 2.9 02:02:52 10° SSW 02:06:59 39° W 02:11:06 10° NNW
Cosmos 2219 Rocket 4.2 02:03:54 10° N 02:07:16 16° NE 02:10:38 10° E
BREEZE-M DEB (TANK) 4.3 02:06:02 10° NNW 02:07:29 16° NNE 02:09:05 10° ENE
S3M 4.3 02:04:11 10° N 02:10:25 53° ENE 02:15:45 14° SSE
MOS 1 Rocket 4.4 02:07:54 14° SE 02:12:01 37° ENE 02:16:52 10° N
Cosmos 2237 4.3 02:07:59 10° NNW 02:13:44 70° ENE 02:18:21 16° SSE
MOS 1 4.4 02:09:20 10° S 02:14:58 78° WSW 02:20:38 10° NNW
Cosmos 2266 Rocket 4.1 02:10:44 10° S 02:16:58 67° E 02:23:19 10° NNE
Cosmos 968 Rocket 4.1 02:15:24 13° SSE 02:19:22 34° E 02:24:01 10° NE
SeaSat 1 2.8 02:18:09 17° SE 02:21:47 53° ENE 02:26:35 10° NNW
SPOT 3 Rocket 4.1 02:20:05 17° SE 02:23:38 42° ENE 02:28:29 10° N
Cosmos 1655 Rocket 4.3 02:17:55 12° SSE 02:23:44 52° E 02:29:55 10° NNE
Tiangong -0.8 02:21:06 10° W 02:23:49 26° SSW 02:24:57 21° S
IRS-1C Rocket 4.1 02:19:19 13° SSE 02:23:59 87° ENE 02:29:16 10° NNW
SPOT 5 2.8 02:22:14 12° S 02:26:07 70° WSW 02:30:29 10° NNW
SL-14 R/B 3.6 02:24:50 20° SSE 02:27:00 42° E 02:30:36 10° NNE
Cosmos 1933 Rocket 4.3 02:22:42 10° NNW 02:27:01 53° W 02:31:20 10° S
Cosmos 1741 Rocket 4.1 02:22:12 10° S 02:27:20 58° ESE 02:32:32 10° NNE
In-Cosmos 22 4.4 02:27:19 10° SSW 02:32:57 74° W 02:38:29 10° N
Cosmos 2360 Rocket 2.9 02:27:46 10° N 02:33:10 42° ENE 02:36:45 20° ESE
Cosmos 1346 Rocket 3.6 02:31:04 10° N 02:34:36 33° ENE 02:36:07 24° ESE
Cosmos 1862 Rocket 4.2 02:33:48 23° SE 02:35:57 38° E 02:40:04 10° NNE
Okean 3 4.4 02:34:34 23° SE 02:36:00 29° E 02:39:37 10° NNE
Resurs 01 Rocket 4.3 02:35:51 10° SW 02:38:14 14° W 02:40:36 10° WNW
Meteor 1-23 Rocket 4.2 02:38:04 10° S 02:43:44 89° E 02:49:29 10° N
SL-16 R/B 2.3 02:39:48 10° NNW 02:45:29 77° WSW 02:49:14 22° SSE
RESURS DK-1 2.2 02:43:31 10° NNW 02:47:36 84° ENE 02:49:28 31° SSE
Cosmos 2333 Rocket 2.6 02:44:17 10° NNW 02:49:56 53° ENE 02:53:10 25° SE
Meteor 1-15 Rocket 4.4 02:46:24 10° NNW 02:51:57 72° W 02:56:04 19° S
Helios 1B 4.5 02:47:44 10° NNE 02:52:04 85° ESE 02:55:07 19° SSW
SJ 16-02 1.5 02:50:26 29° SSE 02:52:15 48° ESE 02:56:25 10° NNE
ERS-1 Rocket 3.2 02:49:41 19° S 02:53:18 64° WSW 02:58:18 10° NNW
Cosmos 1707 Rocket 3.5 02:53:33 23° S 02:56:18 81° E 03:00:45 10° N
Cosmos 1758 3.2 02:52:59 10° N 02:56:56 87° E 02:58:34 34° S
Cosmos 841 Rocket 3.8 02:54:14 10° NNW 02:59:26 62° WSW 03:02:35 24° S
Terra 2.1 02:56:41 22° S 02:59:39 64° W 03:04:20 10° NNW
Cosmos 1833 4.1 02:54:27 10° SSW 03:00:01 75° ESE 03:05:39 10° NNE
SL-27 R/B 2.4 02:59:50 30° SW 03:00:55 55° WNW 03:03:40 10° N
Atlas Centaur 2 3.8 02:54:44 10° WSW 03:01:52 33° SSW 03:05:10 25° SSE
USA 234 3.7 02:58:28 10° NE 03:04:55 64° NW 03:11:21 10° WSW
Spot 2 Rocket 3.7 03:04:15 24° S 03:07:17 65° WSW 03:12:20 10° NNW
Aureole 3 3.3 03:06:44 39° SSE 03:08:05 71° E 03:12:46 10° NNE
Cosmos 2315 Rocket 4.1 03:02:08 10° N 03:08:31 81° W 03:12:38 24° S
CZ-4C R/B 3.9 03:13:34 12° E 03:13:34 12° E 03:14:18 10° ENE
Cosmos 1300 2.8 03:08:47 10° NNW 03:12:18 59° W 03:13:23 38° SSW
Cosmos 807 4.5 03:11:55 41° SSW 03:12:53 67° W 03:15:54 10° N
Meteor 1-16 Rocket 4.5 03:07:10 10° N 03:13:02 61° ENE 03:15:43 32° SE
Cosmos 1932 4.4 03:07:37 10° SSW 03:13:58 79° ESE 03:20:17 10° NE
ARIANE 5 R/B 4.1 03:15:40 20° E 03:16:46 23° ENE 03:20:08 10° NNE
Cosmos 2333 4.3 03:12:50 10° NNW 03:18:37 69° ENE 03:21:08 35° SE
Cosmos 1733 Rocket 3.2 03:14:58 10° NNW 03:19:22 71° W 03:21:04 36° S
Okean 1-7 3.1 03:19:44 46° SE 03:20:43 59° E 03:24:59 10° NNE
Meteor 1-4 Rocket 2.0 03:21:00 80° N 03:21:00 80° N 03:23:51 10° N
Meteor 2-20 4.4 03:15:04 10° N 03:21:16 90° ESE 03:24:24 31° S
ATLAS CENTAUR R/B 3.3 03:23:10 10° WSW 03:26:04 24° NW 03:29:03 10° N
Cosmos 2322 Rocket 2.6 03:22:05 10° NNW 03:27:37 55° WSW 03:30:11 31° S
Okean 2 3.2 03:30:42 61° SSE 03:31:18 76° E 03:35:19 10° N
Cosmos 2297 Rocket 3.9 03:32:33 16° E 03:32:33 16° E 03:35:31 10° ENE
Ariane Rocket 4.0 03:29:26 22° SSW 03:32:10 40° W 03:36:57 10° NNW
Cosmos 1242 Rocket 3.9 03:34:06 21° NE 03:34:06 21° NE 03:35:18 10° NNE
Cosmos 1908 Rocket 3.8 03:29:57 10° N 03:34:11 50° E 03:34:47 46° ESE
GP-B 3.7 03:31:15 10° NNE 03:35:25 40° E 03:35:47 39° E
Cosmos 1315 Rocket 2.7 03:38:28 57° SSW 03:39:13 80° W 03:43:13 10° N
Cosmos 1953 2.1 03:37:21 10° N 03:41:10 69° E 03:41:18 68° E
BlueWalker 3 1.9 03:48:25 57° WSW 03:49:05 78° NW 03:52:49 10° NE
PSLV R/B 4.5 03:46:15 10° NNE 03:49:38 42° E 03:49:38 42° E
Cosmos 1745 Rocket 4.2 03:48:52 40° SE 03:50:49 55° E 03:57:01 10° NNE
ATLAS 2AS CENTAUR R/B 2.7 03:44:44 10° NW 03:51:25 64° WSW 03:53:50 40° S
Cosmos 2219 Rocket 2.1 03:46:17 10° NNW 03:52:00 88° WSW 03:53:40 48° SSE
Cosmos 1300 Rocket 4.4 03:49:57 10° N 03:53:53 34° ENE 03:54:04 34° E
COSMOS 2428 3.3 03:49:26 10° NNW 03:54:55 46° ENE 03:56:49 34° ESE
USA 281 3.4 03:54:58 36° SE 03:57:43 64° ENE 04:04:13 10° NNW
SeaSat 1 4.2 03:57:51 17° SW 03:59:28 20° WSW 04:03:02 10° WNW
Cosmos 1408 4.3 04:03:14 20° NE 04:03:14 20° NE 04:04:25 10° NNE
Cosmos 1386 Rocket 4.4 04:00:17 43° S 04:02:30 81° E 04:08:43 10° N
Nadezhda 1 Rocket 4.0 03:56:14 10° N 04:02:30 67° E 04:04:20 46° SE
Cosmos 1570 Rocket 4.1 03:59:45 10° NNW 04:05:06 70° ENE 04:06:15 53° SE
ALOS 2 4.0 04:06:37 25° E 04:07:08 26° ENE 04:10:46 10° NNE
Cosmos 158 Rocket 4.4 04:03:09 10° N 04:08:19 51° ENE 04:09:23 44° ESE
Cosmos 1455 2.7 04:06:55 10° NNW 04:09:56 48° WNW 04:09:56 48° WNW
Cosmos 1703 Rocket 4.0 04:11:48 48° WSW 04:12:39 56° W 04:17:03 10° N
SL-24 R/B - RUBIN 2 4.4 04:10:18 10° NW 04:16:49 71° WSW 04:18:17 52° S
Cosmos 2360 Rocket 3.5 04:12:11 10° NW 04:16:54 27° WSW 04:18:30 24° SW
H-2A R/B 2.7 04:22:37 62° ENE 04:22:38 62° ENE 04:26:51 10° N
COSMOS 2455 2.7 04:27:48 51° SSW 04:29:26 84° ESE 04:35:30 10° NNE
Cosmos 839 Rocket 4.4 04:23:42 10° NW 04:29:56 47° WSW 04:31:15 41° SSW
SJ 16-02 4.0 04:28:15 10° W 04:30:53 16° WNW 04:33:32 10° NNW
Cosmos 2242 Rocket 3.5 04:31:59 83° E 04:31:59 83° E 04:36:35 10° N
Cosmos 836 Rocket 4.4 04:27:37 10° NNW 04:32:51 75° ENE 04:33:30 65° SE
Cosmos 2333 Rocket 3.8 04:29:27 10° NW 04:33:46 22° W 04:35:10 20° WSW
NOSS 0 Rocket 4.0 04:33:40 10° NNW 04:39:56 72° ENE 04:41:34 50° SE
Cosmos 2208 Rocket 3.8 04:34:52 10° NNW 04:40:03 77° WSW 04:40:30 71° SSW
CZ-3 Stage 3 4.0 04:10:29 10° W 04:40:44 45° SSW 04:43:32 39° S
Cosmos 1825 4.4 04:45:15 15° ENE 04:45:15 15° ENE 04:46:19 10° NE
Cosmos 1777 Rocket 4.1 04:44:04 57° ESE 04:44:09 57° ESE 04:49:20 10° NNE
Cosmos 1503 Rocket 3.9 04:44:15 68° SE 04:44:35 71° ESE 04:49:53 10° NNE
CENTAUR R/B 3.3 04:46:01 30° ESE 04:46:01 30° ESE 04:51:02 10° NE
SL-4 R/B 3.3 04:45:44 10° NW 04:49:33 39° NNE 04:50:42 32° ENE
Cosmos 1709 Rocket 4.1 04:48:29 50° SSW 04:50:15 76° W 04:56:38 10° N
Cosmos 371 Rocket 3.2 04:49:55 70° WSW 04:50:15 73° WNW 04:55:05 10° NNE
ARIANE 5 R/B 3.8 04:53:07 31° W 04:53:07 31° W 04:56:50 10° NNW
Cosmos 2237 Rocket 2.6 04:47:28 10° NNW 04:53:01 53° ENE 04:54:21 44° ESE
Cosmos 2227 Rocket 2.7 04:55:36 43° ESE 04:55:36 43° ESE 05:00:56 10° NE
Cosmos 2322 4.2 04:51:22 10° NW 04:56:44 45° WSW 04:57:14 44° WSW
CZ-4C R/B 2.1 04:58:36 52° W 04:59:21 60° NW 05:04:42 10° NNE
Meteor 1-24 Rocket 3.7 04:58:53 64° SSW 04:59:50 87° W 05:05:32 10° N
Cosmos 2184 Rocket 4.5 05:04:30 43° ESE 05:05:42 48° E 05:11:46 10° NNE
Cosmos 1980 3.7 05:00:39 10° NNW 05:06:20 73° ENE 05:07:17 60° ESE
Okean 1 Rocket 4.4 05:03:29 10° NNE 05:07:20 30° ENE 05:07:21 30° ENE
PSLV R/B 3.7 05:10:32 10° NNE 05:14:11 66° NNE 05:14:11 66° NNE
Cosmos 2297 Rocket 2.3 05:14:18 53° WSW 05:15:30 67° WNW 05:21:09 10° NNE
Cosmos 2084 Rocket 3.8 05:19:51 63° NNW 05:19:51 63° NNW 05:23:37 10° NNE
Cosmos 2219 4.0 05:19:41 36° ESE 05:19:41 36° ESE 05:24:47 10° NE
Cosmos 2154 Rocket 4.3 05:21:34 46° SE 05:22:45 52° E 05:28:48 10° NNE
Cosmos 783 Rocket 4.4 05:17:50 10° NNW 05:23:09 81° ENE 05:23:36 74° SE
Cosmos 1354 Rocket 4.1 05:26:08 59° WSW 05:26:49 66° WNW 05:32:07 10° NNE
H-2A R/B 2.3 05:22:40 10° NNE 05:26:17 61° NE 05:26:17 61° NE
Cosmos 405 Rocket 3.8 05:26:32 10° NNW 05:29:10 40° NW 05:29:10 40° NW
Cosmos 2098 Rocket 4.1 05:25:39 10° NNW 05:32:09 61° W 05:33:21 52° SW
NOSS 3-2 (A) 3.6 05:34:24 43° ESE 05:34:24 43° ESE 05:39:30 10° NE
Cosmos 2219 Rocket 4.4 05:33:26 10° W 05:35:01 11° W 05:35:22 11° W
COSMOS 2428 4.0 05:34:17 10° NW 05:38:48 25° WSW 05:38:48 25° WSW
Cosmos 2151 Rocket 3.9 05:36:49 10° NNW 05:40:39 58° WNW 05:40:39 58° WNW
USA 281 4.5 05:41:51 23° WSW 05:42:35 24° WSW 05:47:43 10° NW
ALOS 2 4.0 05:44:00 27° W 05:44:00 27° W 05:47:10 10° NW
Cosmos 1455 Rocket 4.4 05:39:38 10° NNE 05:43:36 31° ENE 05:44:02 30° E
Cosmos 332 Rocket 4.0 05:43:54 61° W 05:44:11 62° WNW 05:49:02 10° NNE
Cosmos 2263 Rocket 2.7 05:47:06 43° ESE 05:47:23 43° ESE 05:52:38 10° NE
Okean 2 Rocket 3.5 05:43:14 10° NNW 05:47:13 56° WNW 05:47:13 56° WNW
Cosmos 1674 Rocket 4.1 05:48:08 48° WNW 05:48:08 48° WNW 05:52:05 10° N
Cosmos 1378 Rocket 4.4 05:48:39 40° WNW 05:48:39 40° WNW 05:52:36 10° N
Cosmos 1892 4.1 05:53:04 30° NW 05:53:04 30° NW 05:55:20 10° N
Cosmos 1025 Rocket 3.2 05:52:53 66° NE 05:52:53 66° NE 05:56:49 10° NNE
Cosmos 2181 Rocket 4.4 05:51:53 10° NNW 05:57:44 47° W 05:58:44 43° WSW
Cosmos 1328 4.4 06:02:28 50° NNW 06:02:28 50° NNW 06:05:35 10° N
Cosmos 2074 Rocket 4.2 06:03:57 47° SW 06:05:20 57° W 06:11:28 10° N
Cosmos 990 Rocket 4.0 06:08:04 60° WSW 06:08:38 64° WNW 06:13:44 10° NNE
SL-12 R/B(2) 4.3 06:07:20 36° SW 06:11:07 77° NW 06:20:42 10° NNE
Cosmos 2341 Rocket 4.5 06:11:19 38° SE 06:13:08 50° E 06:19:07 10° NNE
Cosmos 1825 4.2 06:18:44 18° NW 06:18:44 18° NW 06:20:27 10° NNW
In-Cosmos 22 Rocket 4.3 06:19:43 54° SSE 06:20:57 71° E 06:26:46 10° NNE
IDEFIX/ARIANE 42P 3.9 06:21:57 10° NE 06:26:29 29° E 06:27:56 25° ESE
SL-4 R/B 4.2 06:24:25 10° WNW 06:25:23 16° WNW 06:25:23 16° WNW
SL-16 R/B 2.1 06:24:58 10° NNW 06:30:41 83° WSW 06:32:00 55° SSE
Cosmos 1538 Rocket 3.9 06:26:28 10° NNW 06:31:38 65° WSW 06:32:02 62° SW
CENTAUR R/B 3.2 06:33:07 28° W 06:35:47 46° NW 06:42:26 10° NNE
Cosmos 2237 Rocket 3.7 06:32:28 10° NW 06:36:08 21° W 06:36:08 21° W
Cosmos 2082 3.6 06:36:52 55° SW 06:38:07 77° WNW 06:43:46 10° NNE
Cosmos 2227 Rocket 3.6 06:37:22 21° W 06:39:47 28° NW 06:44:39 10° N
CZ-2C R/B 4.2 06:36:31 12° ESE 06:40:33 30° ENE 06:45:12 10° N
MOZ.5/SAFIR/RUBIN 5/SL-8 4.3 06:39:24 37° SE 06:40:51 52° ENE 06:45:22 10° N
Cosmos 372 Rocket 3.9 06:40:30 62° SSW 06:41:25 86° WNW 06:46:40 10° NNE
CZ-2D R/B 3.5 06:39:00 10° NE 06:43:38 29° E 06:45:38 23° SE
CRYOSAT 2 4.3 06:38:51 10° N 06:43:45 76° W 06:44:26 63° SW
Cosmos 1943 4.3 06:38:59 10° N 06:44:17 40° ENE 06:49:32 10° SE
Nadezhda 3 Rocket 4.5 06:38:44 10° NNW 06:44:36 44° W 06:45:55 39° WSW
USA 238 DEB 4.2 06:45:17 32° SSE 06:47:02 39° ESE 06:53:00 10° NE
USA 238 4.2 06:45:20 32° SSE 06:47:05 39° ESE 06:53:03 10° NE
Cosmos 2218 Rocket 4.0 06:45:40 42° SSE 06:47:53 74° E 06:54:04 10° N
Cosmos 1606 2.9 06:45:52 10° N 06:49:14 61° ENE 06:49:14 61° ENE
Cosmos 1867 4.5 06:49:37 32° SE 06:50:49 36° ESE 06:55:47 10° NE
Cosmos 2228 3.9 06:48:03 10° N 06:52:11 44° ENE 06:53:30 33° ESE
Cosmos 2366 rocket 3.9 06:51:04 43° S 06:53:18 85° E 06:59:35 10° N
Cosmos 1544 Rocket 3.7 06:51:06 10° N 06:55:32 68° E 06:56:27 52° SE
Meteor 1-11 4.3 06:56:29 47° SSW 06:58:08 71° W 07:03:57 10° N
H-2A R/B 4.0 06:55:04 10° NNE 06:58:53 43° E 06:59:26 40° ESE
Cosmos 923 Rocket 3.9 06:54:18 10° NNW 06:59:34 85° WSW 07:01:11 46° SSE
Cosmos 1937 Rocket 3.6 07:00:05 49° SW 07:01:23 67° WNW 07:06:38 10° NNE
Aureole 1 Rocket 4.3 07:02:21 24° WNW 07:02:44 25° WNW 07:06:14 10° N
NPP 3.9 06:58:24 10° NNE 07:03:46 63° E 07:05:42 39° SSE
Cosmos 2219 4.4 07:01:34 24° W 07:03:49 32° WNW 07:08:51 10° N
ADEOS II 3.5 06:59:15 10° NE 07:03:49 30° E 07:06:31 19° SE
Cosmos 1975 Rocket 3.9 07:06:00 34° W 07:06:19 34° WNW 07:10:20 10° N
Cosmos 1898 Rocket 4.2 07:05:14 35° WSW 07:06:38 43° WNW 07:11:33 10° N
Cosmos 2227 4.2 07:11:34 42° SSW 07:13:36 80° ESE 07:19:22 10° NNE
Resurs 1-4 Rocket 2.2 07:14:39 10° NNE 07:19:55 68° ESE 07:22:10 35° S
Cosmos 1844 4.4 07:19:48 27° SSE 07:22:28 46° ESE 07:28:00 10° NE
Helios 1A Rocket 4.0 07:23:30 28° W 07:23:30 28° W 07:26:15 10° NW
SL-16 R/B 3.9 07:17:34 10° SE 07:23:15 38° ENE 07:28:56 10° N
SL-8 Rocket 4.4 07:21:49 34° SW 07:24:05 48° WNW 07:30:04 10° N
Cosmos 921 Rocket 4.4 07:22:19 10° N 07:26:13 35° ENE 07:30:03 10° SE
Cosmos 1461 4.2 07:28:39 24° W 07:29:47 28° NW 07:33:13 10° N
NOSS 3-2 (C) 3.6 07:28:54 31° WSW 07:31:17 55° NW 07:37:16 10° NNE
Cosmos 2263 Rocket 3.5 07:28:45 19° W 07:31:26 28° NW 07:36:11 10° N
COSMOS 2441 4.5 07:30:57 10° NNE 07:35:46 71° ESE 07:38:00 32° S
Cosmos 1536 Rocket 3.6 07:34:38 44° SW 07:35:52 65° W 07:40:17 10° N
USA 267 3.9 07:29:50 10° ENE 07:36:01 43° SE 07:39:25 25° S
Cosmos 1680 Rocket 3.7 07:36:19 10° NNW 07:41:18 48° WSW 07:43:08 34° SSW
Cosmos 2112 Rocket 4.1 07:39:01 10° NNW 07:44:04 54° WSW 07:46:20 31° SSW
Cosmos 2239 Rocket 4.5 07:40:53 25° S 07:44:42 82° E 07:50:52 10° N
Cosmos 1727 Rocket 4.0 07:40:31 10° N 07:46:51 78° W 07:51:19 21° S
Cosmos 1818 3.9 07:43:53 10° NW 07:49:03 44° WSW 07:51:34 27° S
Cosmos 1844 Rocket 2.6 07:47:26 30° SSW 07:50:20 90° NW 07:55:56 10° NNE
SL-08 R/B 4.5 07:48:24 24° S 07:52:28 86° W 07:58:45 10° N
Cosmos 1437 Rocket 3.0 07:54:44 37° SW 07:55:47 49° WNW 07:59:28 10° N
Meteor 1-27 4.4 07:52:02 10° NNW 07:57:44 59° W 08:01:20 23° SSW
Delta 2 Rocket 3.9 07:57:55 33° S 07:57:55 33° S 08:01:40 10° ESE
SEDSat Delta rocket 4.3 07:59:34 20° SSE 07:59:34 20° SSE 08:02:04 10° SE
Cosmos 1000 Rocket 4.5 07:52:57 10° N 07:59:16 88° W 08:04:53 13° S
IDEFIX/ARIANE 42P 3.5 08:01:17 10° N 08:05:59 34° WNW 08:08:41 21° WSW
ASTEX 1 3.3 08:04:21 17° S 08:08:09 87° W 08:13:03 10° N
Timation 2 Rocket 4.3 08:08:32 17° S 08:13:42 67° ESE 08:20:04 10° NNE
SL-16 R/B 4.2 08:13:10 10° W 08:13:49 10° W 08:13:49 10° W
CZ-2C R/B 4.3 08:10:22 10° NE 08:13:57 22° E 08:17:34 10° SSE
Envisat 4.1 08:10:22 10° NNE 08:15:08 39° E 08:19:52 10° SSE
CZ-2C R/B 3.5 08:10:47 10° N 08:15:54 47° WNW 08:19:01 21° SW
Cosmos 1048 Rocket 4.0 08:11:52 10° NNW 08:17:08 87° WSW 08:22:25 10° SSE
Cosmos 1603 3.8 08:14:02 10° NNW 08:19:39 55° WSW 08:25:10 10° S
CZ-2C R/B 3.3 08:17:59 21° SW 08:20:41 34° W 08:25:33 10° NNW
CZ-2D R/B 3.0 08:18:51 10° N 08:23:37 35° WNW 08:26:55 18° WSW
Cosmos 1892 Rocket 3.6 08:22:12 20° SSW 08:25:12 68° W 08:29:37 10° N
Cosmos 1125 Rocket 3.5 08:21:21 18° SSW 08:25:18 89° WNW 08:30:38 10° NNE
Cosmos 1544 3.4 08:24:37 15° SSE 08:26:30 39° E 08:28:59 10° NNE
UNK 3.9 08:22:20 10° SSE 08:26:56 76° ENE 08:31:31 10° N
Cosmos 2058 Rocket 3.4 08:22:34 10° N 08:26:59 66° E 08:31:20 10° SSE
Cosmos 1943 4.1 08:23:23 10° NW 08:28:04 28° WSW 08:31:17 17° SSW
Cosmos 494 Rocket 4.3 08:24:44 10° NNW 08:29:45 47° WSW 08:34:45 10° S
FENGYUN 3A 4.1 08:25:17 10° N 08:30:25 46° WNW 08:34:19 17° SW
Cosmos 1607 3.9 08:25:28 10° NW 08:31:53 80° WSW 08:38:08 10° SSE
AQUA 4.4 08:33:03 10° N 08:37:31 43° WNW 08:40:59 16° SW
USA 238 DEB 4.4 08:32:42 13° WSW 08:37:52 41° NW 08:44:11 10° NNE
USA 238 4.3 08:32:45 13° WSW 08:37:54 41° NW 08:44:14 10° NNE
YAOGAN 6 4.2 08:36:36 10° NE 08:39:21 26° E 08:42:04 10° SSE
Cosmos 2150 Rocket 4.3 08:35:47 10° S 08:40:51 69° ESE 08:46:08 10° NNE
Cosmos 1812 2.6 08:38:44 10° NNW 08:42:15 58° W 08:45:45 10° S
Iridium 4 Rocket 3.2 08:38:01 10° N 08:42:33 88° W 08:47:28 10° S
ADEOS II 3.0 08:38:44 10° N 08:43:25 34° WNW 08:47:23 14° SW
ALOS 2.6 08:39:34 10° N 08:44:02 50° WNW 08:47:51 14° SW
Cosmos 1605 Rocket 4.0 08:38:42 10° S 08:44:55 89° E 08:51:05 10° N
Orbus 7S? 4.4 08:45:50 10° WNW 08:49:03 32° SW 08:54:56 10° SSE
Cosmos 1626 Rocket 3.8 08:46:51 10° S 08:51:15 73° E 08:55:40 10° NNE
USA 81 4.2 08:46:23 10° NNW 08:51:33 57° W 08:56:41 10° SSW
SAR-Lupe-4 4.2 08:49:36 10° N 08:52:58 41° WNW 08:55:53 13° SW
Meteor 2-19 Rocket 4.5 08:51:16 10° NNW 08:57:22 67° W 09:03:28 10° S
Resurs 1-4 Rocket 3.9 08:55:55 10° NNW 08:59:07 17° WNW 09:02:20 10° W
ATLAS 5 CENTAUR R/B 1.1 08:56:45 11° SSW 08:59:47 65° ESE 09:03:14 10° NE
NOSS 2-3 (D) 3.9 08:56:32 10° SSW 09:00:04 46° ESE 09:03:45 10° NE
Cosmos 1782 3.3 08:57:02 10° N 09:00:51 59° E 09:04:37 10° SSE
Cosmos 921 Rocket 4.5 09:01:15 10° NW 09:04:04 18° W 09:06:51 10° SW
Cosmos 1833 Rocket 4.0 08:58:45 10° NNW 09:04:09 45° ENE 09:09:33 10° SE
SL-16 R/B 3.2 09:01:09 10° SSW 09:06:47 35° W 09:12:27 10° NNW
Thor Agena Rocket 4.1 09:05:10 10° NNE 09:10:25 62° ESE 09:15:36 10° S
NOSS 2-2 (C) 2.8 09:07:48 10° SW 09:11:08 68° NW 09:14:13 10° NNE
Cosmos 2058 4.0 09:10:21 10° SW 09:13:52 28° WNW 09:17:27 10° NNW
CZ-4 R/B 4.1 09:11:35 10° N 09:16:26 61° WNW 09:21:19 10° SSW
Cosmos-2242 3.0 09:14:08 10° N 09:18:27 79° W 09:22:43 10° S
USA 267 3.7 09:12:44 10° NE 09:19:06 57° NW 09:25:28 10° WSW
Cosmos 1666 4.1 09:16:02 10° SSE 09:19:11 34° E 09:22:20 10° NNE
Meteor 2-3 Rocket 3.9 09:14:08 10° S 09:19:55 87° W 09:25:46 10° N
Cosmos 2298 Rocket 4.4 09:17:01 10° SW 09:22:10 51° WNW 09:27:23 10° N
Cosmos 614 Rocket 4.1 09:17:18 10° NNW 09:22:28 82° ENE 09:27:33 10° SSE
